| time (UTC) | temp F | wind direction | speed knots | gust knots | rain 1hr in | rain 24hr in | rain mn in | humidity % | barometer mb |
| 20260507134430 | 59 | 0.0 | 0.0 | 0.00 | 0.00 | 0.00 | 38 | 1019.4 | |
| 20260507131429 | 60 | 0.0 | 0.0 | 0.00 | 0.00 | 0.00 | 38 | 1019.7 | |
| 20260507124430 | 60 | 0.0 | 0.0 | 0.00 | 0.00 | 0.00 | 37 | 1020.1 | |
| 20260507121429 | 60 | 0.0 | 0.0 | 0.00 | 0.00 | 0.00 | 37 | 1020.7 | |
| 20260507114429 | 60 | 0.0 | 0.0 | 0.00 | 0.00 | 0.00 | 36 | 1020.6 | |
| 20260507111431 | 60 | 0.0 | 0.0 | 0.00 | 0.00 | 0.00 | 35 | 1020.4 | |
| 20260507104431 | 61 | 0.0 | 0.0 | 0.00 | 0.00 | 0.00 | 35 | 1020.3 | |
| 20260507101431 | 61 | 0.0 | 0.0 | 0.00 | 0.00 | 0.00 | 34 | 1020.2 | |
| 20260507094430 | 61 | 0.0 | 0.0 | 0.00 | 0.00 | 0.00 | 34 | 1019.9 | |
| 20260507091430 | 61 | 0.0 | 0.0 | 0.00 | 0.00 | 0.00 | 34 | 1019.6 | |
| 20260507084429 | 61 | 0.0 | 0.0 | 0.00 | 0.00 | 0.00 | 33 | 1019.2 | |
| 20260507081429 | 61 | 0.0 | 0.0 | 0.00 | 0.00 | 0.00 | 32 | 1019.3 | |
| 20260507074431 | 62 | 0.0 | 0.0 | 0.00 | 0.00 | 0.00 | 32 | 1018.7 | |
| 20260507071430 | 62 | 0.0 | 0.0 | 0.00 | 0.00 | 0.00 | 31 | 1018.4 | |
| 20260507064428 | 62 | 0.0 | 0.0 | 0.00 | 0.00 | 0.00 | 33 | 1017.8 | |
| 20260507061429 | 63 | 0.0 | 0.0 | 0.00 | 0.00 | 0.00 | 35 | 1017.6 | |
| 20260507054428 | 63 | 0.0 | 0.0 | 0.00 | 0.00 | 0.00 | 35 | 1017.6 | |
| 20260507051430 | 64 | 0.0 | 0.0 | 0.00 | 0.00 | 0.00 | 34 | 1017.5 | |
| 20260507044428 | 64 | 0.0 | 0.0 | 0.00 | 0.00 | 0.00 | 35 | 1017.3 | |
| 20260507041428 | 64 | 0.0 | 0.0 | 0.00 | 0.00 | 0.00 | 35 | 1017.0 | |
| 20260507034428 | 64 | 0.0 | 0.0 | 0.00 | 0.00 | 0.00 | 37 | 1016.6 | |
| 20260507031428 | 65 | 0.0 | 0.0 | 0.00 | 0.00 | 0.00 | 42 | 1016.3 | |
| 20260507024428 | 64 | 0.0 | 0.0 | 0.00 | 0.00 | 0.00 | 43 | 1016.3 | |
| 20260507021428 | 64 | 0.0 | 0.0 | 0.00 | 0.00 | 0.00 | 43 | 1016.6 | |
| 20260507014428 | 63 | 0.0 | 0.0 | 0.00 | 0.00 | 0.00 | 42 | 1016.7 | |
| 20260507011428 | 63 | 0.0 | 0.0 | 0.00 | 0.00 | 0.00 | 42 | 1017.0 | |
| 20260507004428 | 63 | 0.0 | 0.0 | 0.00 | 0.00 | 0.00 | 42 | 1016.7 | |
| 20260507001428 | 63 | 0.0 | 0.0 | 0.00 | 0.00 | 0.00 | 46 | 1016.4 | |
| 20260506234428 | 62 | 0.0 | 0.0 | 0.00 | 0.00 | 0.00 | 46 | 1016.6 | |
| 20260506231427 | 60 | 0.0 | 0.0 | 0.00 | 0.00 | 0.00 | 48 | 1016.7 | |
| 20260506224427 | 58 | 0.0 | 0.0 | 0.00 | 0.00 | 0.00 | 49 | 1016.8 | |
| 20260506221428 | 58 | 0.0 | 0.0 | 0.00 | 0.00 | 0.00 | 50 | 1016.8 | |
| 20260506214427 | 59 | 0.0 | 0.0 | 0.00 | 0.00 | 0.00 | 50 | 1016.6 | |
| 20260506211427 | 60 | 0.0 | 0.0 | 0.00 | 0.00 | 0.00 | 49 | 1015.3 | |
| 20260506204428 | 60 | 0.0 | 0.0 | 0.00 | 0.00 | 0.00 | 47 | 1014.1 | |
| 20260506201427 | 60 | 0.0 | 0.0 | 0.00 | 0.00 | 0.00 | 47 | 1013.9 | |
| 20260506194427 | 60 | 0.0 | 0.0 | 0.00 | 0.00 | 0.00 | 47 | 1013.7 | |
| 20260506191427 | 61 | 0.0 | 0.0 | 0.00 | 0.00 | 0.00 | 47 | 1013.6 | |
| 20260506184427 | 62 | 0.0 | 0.0 | 0.00 | 0.00 | 0.00 | 46 | 1013.6 | |
| 20260506181429 | 62 | 0.0 | 0.0 | 0.00 | 0.00 | 0.00 | 46 | 1013.6 | |
| 20260506174428 | 62 | 0.0 | 0.0 | 0.00 | 0.00 | 0.00 | 45 | 1013.6 | |
| 20260506171427 | 63 | 0.0 | 0.0 | 0.00 | 0.00 | 0.00 | 44 | 1013.5 | |
| 20260506164428 | 63 | 0.0 | 0.0 | 0.00 | 0.00 | 0.00 | 44 | 1013.9 | |
| 20260506161428 | 63 | 0.0 | 0.0 | 0.00 | 0.00 | 0.00 | 46 | 1014.4 | |
| 20260506154426 | 63 | 0.0 | 0.0 | 0.00 | 0.00 | 0.00 | 46 | 1014.4 | |
| 20260506151426 | 62 | 0.0 | 0.0 | 0.00 | 0.00 | 0.00 | 49 | 1013.9 | |
| 20260506144426 | 62 | 0.0 | 0.0 | 0.00 | 0.00 | 0.00 | 53 | 1014.5 | |
| 20260506141426 | 63 | 0.0 | 0.0 | 0.00 | 0.00 | 0.00 | 53 | 1014.6 |